Back to catalog

STARLINK-34313

AliveCommunicationsSSO
NORAD 64166·PAYLOAD·🇺🇸 United States

Launched May 27, 2025 from Vandenberg Space Force Base

Loading…

Next Passes (next 24 hours)

TLE

FreshSource: CelesTrak SupGP

Epoch: Sep 14, 2026, 15:36 UTC

1 64166C 25112W   26257.65048611  .00000071  00000+0  22134-5 0  2578
2 64166  97.2843 304.7495 0000924 108.0856  36.2755 15.33445939    18

Track STARLINK-34313 in real time with AllMySat

Download on the App Store